Location: Malcolm X Square
(37.7810°N, 122.4297°W)
Time: 00:02:28
(UTC+00:00)

H-2A R/B - Pass Details

Date: 13 April 2024
Orbit: 732 x 833 km, 98.2° (Epoch: 21 May)

Event Time Altitude Azimuth Distance (km) Brightness Sun altitude
Rises 12:00:19 0° 22° (NNE) 3,194 6.0 -18.6°
Reaches altitude 10° 12:02:46 10° 31° (NNE) 2,278 5.3 -18.2°
Maximum altitude 12:07:23 37° 98° (E) 1,176 3.4 -17.4°
Drops below altitude 10° 12:12:06 10° 165° (SSE) 2,320 4.4 -16.5°
Sets 12:14:35 0° 174° (S) 3,260 5.1 -16.1°
